DateTimeUTC,F1_A11,F1_S11,BsB_S11,BsG_S11,BsR_S11,BbsB_S11,BbsG_S11,BbsR_S11,BaB_A11,BaG_A11,BaR_A11,Tu_S11,T_S11,Uu_S11,U_S11,P_S11,T1_A11
2021-05-31T01:00:00Z,00000200,21000000,,,,,,,-000.09,-000.05,0000.05,17.5,24.7,01.2,00.8,0658.2,31.0
2021-05-31T01:01:00Z,00000200,21000000,,,,,,,0000.01,-000.43,-000.20,17.4,24.7,01.2,00.8,0658.2,31.0
2021-05-31T01:02:00Z,00000200,21000000,,,,,,,0000.00,0000.53,0000.34,17.4,24.7,01.2,00.8,0658.2,31.0
2021-05-31T01:03:00Z,00000200,61000000,,,,,,,0000.04,-000.05,-000.09,17.4,24.7,00.9,00.6,0658.2,31.0
2021-05-31T01:04:00Z,00000200,41000000,0000.81,0000.41,0000.03,0000.02,-000.00,-000.16,0000.02,-000.26,-000.15,17.6,24.5,01.0,00.7,0659.1,31.0
2021-05-31T01:05:00Z,00000200,01000000,0000.22,0000.47,0000.31,0000.01,-000.08,-000.05,0000.25,0000.19,0000.38,17.6,24.4,01.0,00.7,0659.2,31.0
2021-05-31T01:06:00Z,00000200,01000000,0000.34,0000.61,0000.24,0000.38,0000.09,0000.14,0000.42,0000.81,0000.54,17.7,24.4,01.0,00.7,0659.1,31.0
2021-05-31T01:07:00Z,00000200,01000000,0000.36,0000.23,-000.11,0000.00,0000.12,-000.19,0000.18,-000.39,0000.13,17.6,24.4,01.2,00.8,0659.1,31.0
2021-05-31T01:08:00Z,00000200,01000000,0000.27,0000.69,0000.38,0000.35,0000.14,0000.18,-000.32,0000.03,-000.35,17.6,24.4,01.1,00.7,0659.1,31.0
2021-05-31T01:09:00Z,00000200,01000000,0000.43,0000.40,0000.02,0000.40,-000.15,-000.09,0000.02,-000.16,0000.08,17.7,24.4,01.0,00.6,0659.1,31.0
2021-05-31T01:10:00Z,00000200,01000000,0000.80,0000.54,0000.06,0000.13,0000.18,0000.00,0000.27,0000.30,-000.06,17.7,24.4,00.9,00.6,0659.1,31.0
2021-05-31T01:11:00Z,00000200,01000000,0000.17,0000.19,0000.21,-000.17,-000.12,-000.07,0000.01,0000.05,0000.37,17.7,24.4,00.8,00.6,0659.1,31.0
2021-05-31T01:12:00Z,00000200,01000000,0000.62,0000.28,0000.19,-000.00,0000.12,-000.07,0000.26,0000.04,-000.40,17.7,24.4,01.0,00.6,0659.1,31.0
2021-05-31T01:13:00Z,00000200,01000000,0001.07,0000.31,0000.11,0000.46,-000.05,0000.16,-000.16,0000.12,0000.55,17.7,24.4,01.0,00.7,0659.1,31.0
2021-05-31T01:14:00Z,00000200,01000000,0000.61,0000.29,-000.02,0000.16,-000.00,-000.04,0000.21,0000.11,-000.34,17.7,24.4,01.0,00.6,0659.1,31.0
2021-05-31T01:15:00Z,00000200,01000000,0000.36,-000.03,-000.13,0000.42,-000.23,0000.19,0000.68,0000.44,0000.52,17.7,24.4,01.0,00.7,0659.1,31.0
2021-05-31T01:16:00Z,00000200,01000000,-000.03,0000.04,0000.13,0000.47,0000.07,0000.08,-000.22,-000.25,0000.09,17.7,24.4,01.1,00.7,0659.1,31.0
2021-05-31T01:17:00Z,00000200,01000000,0000.33,0000.23,0000.12,-000.18,0000.14,-000.09,0000.11,0000.29,-000.08,17.7,24.4,01.1,00.7,0659.1,31.0
2021-05-31T01:18:00Z,00000200,01000000,0000.83,0000.25,0000.19,0000.14,0000.12,-000.22,0000.02,0000.05,0000.11,17.7,24.3,01.1,00.7,0659.1,31.0
2021-05-31T01:19:00Z,00000200,01000000,0000.41,0000.09,0000.11,0000.14,-000.07,-000.11,0000.02,0000.04,-000.13,17.7,24.3,01.2,00.8,0659.1,31.0
2021-05-31T01:20:00Z,00000200,01000000,-000.05,0000.37,0000.14,0000.22,0000.15,-000.09,-000.02,-000.12,0000.11,17.7,24.3,01.1,00.7,0659.1,31.0
2021-05-31T01:21:00Z,00000200,01000000,-000.03,0000.46,0000.11,-000.09,-000.04,-000.23,-000.09,0000.18,-000.13,17.7,24.3,01.1,00.7,0659.1,31.0
2021-05-31T01:22:00Z,00000200,01000000,0000.46,0000.26,0000.36,-000.08,-000.17,0000.32,-000.13,-000.28,-000.33,17.7,24.3,00.9,00.6,0659.1,31.0
2021-05-31T01:23:00Z,00000200,01000000,0000.52,0000.11,0000.05,-000.21,0000.03,-000.03,0000.27,0000.25,0000.39,17.7,24.3,00.9,00.6,0659.2,31.0
2021-05-31T01:24:00Z,00000200,01000000,0000.46,-000.06,-000.17,0000.37,0000.08,-000.24,0000.26,-000.09,-000.02,17.7,24.3,00.9,00.6,0659.1,31.0
2021-05-31T01:25:00Z,00000200,01000000,-000.06,0000.32,-000.04,0000.06,0000.13,-000.10,-000.45,-000.00,0000.06,17.7,24.3,00.9,00.6,0659.1,31.0
2021-05-31T01:26:00Z,00000200,01000000,0000.15,0000.01,0000.10,0000.19,0000.00,0000.08,0000.77,0000.47,0000.43,17.6,24.3,00.9,00.6,0659.1,31.0
2021-05-31T01:27:00Z,00000200,01000000,0000.12,0000.28,0000.04,0000.21,0000.21,0000.11,0000.08,-000.02,0000.21,17.6,24.3,00.9,00.6,0659.1,31.0
2021-05-31T01:28:00Z,00000200,01000000,-000.34,0000.28,0000.09,0000.19,-000.19,0000.07,-000.02,0000.21,0000.15,17.6,24.3,00.8,00.5,0659.1,31.0
2021-05-31T01:29:00Z,00000200,01000000,0000.81,0000.40,0000.22,0000.20,-000.06,0000.08,0000.42,0000.37,-000.06,17.6,24.3,00.8,00.5,0659.1,31.0
2021-05-31T01:30:00Z,00000200,01000000,0000.49,0000.10,0000.32,0000.08,-000.02,-000.10,-000.13,-000.14,0000.22,17.6,24.3,00.8,00.5,0659.1,31.0
2021-05-31T01:31:00Z,00000200,01000000,0000.58,0000.18,0000.33,0000.03,0000.24,-000.12,0000.07,0000.00,-000.19,17.6,24.3,00.8,00.6,0659.2,31.0
2021-05-31T01:32:00Z,00000200,01000000,0000.14,-000.13,-000.03,0000.19,0000.12,-000.04,0000.38,0000.28,0000.26,17.6,24.3,00.9,00.6,0659.1,31.0
2021-05-31T01:33:00Z,00000200,01000000,0000.11,0000.21,0000.05,0000.21,0000.02,-000.14,-000.03,-000.06,-000.01,17.6,24.3,00.9,00.6,0659.1,31.0
2021-05-31T01:34:00Z,00000200,01000000,-000.16,0000.06,0000.04,-000.30,0000.21,0000.01,-000.23,0000.21,0000.16,17.6,24.3,01.0,00.7,0659.1,31.0
2021-05-31T01:35:00Z,00000200,01000000,0000.62,0000.06,0000.23,0000.56,0000.28,0000.22,0000.41,0000.09,0000.06,17.6,24.3,00.8,00.5,0659.1,31.0
2021-05-31T01:36:00Z,00000200,01000000,0000.26,0000.00,0000.02,-000.15,0000.04,-000.09,-000.05,-000.02,-000.02,17.6,24.3,00.9,00.6,0659.1,31.0
2021-05-31T01:37:00Z,00000200,01000000,0000.38,0000.30,-000.16,-000.04,0000.18,0000.03,0000.13,0000.29,0000.30,17.6,24.3,00.8,00.6,0659.1,31.0
2021-05-31T01:38:00Z,00000200,01000000,-000.09,0000.08,-000.06,0000.38,-000.10,0000.03,0000.47,0000.25,-000.03,17.6,24.3,00.9,00.6,0659.1,31.0
2021-05-31T01:39:00Z,00000200,01000000,0000.23,-000.24,0000.02,0000.30,-000.15,-000.27,0000.13,0000.21,0000.61,17.6,24.3,01.0,00.7,0659.1,31.0
2021-05-31T01:40:00Z,00000200,01000000,-000.30,0000.38,0000.34,0000.07,-000.04,0000.13,0000.11,-000.01,-000.30,17.6,24.3,01.2,00.8,0659.1,31.0
2021-05-31T01:41:00Z,00000200,01000000,0000.17,0000.37,-000.06,0000.50,0000.21,-000.32,0000.04,-000.14,-000.14,17.6,24.2,01.1,00.8,0659.1,31.0
2021-05-31T01:42:00Z,00000200,01000000,0000.96,0000.43,-000.03,0000.18,0000.15,-000.33,-000.44,-000.04,-000.23,17.6,24.2,01.0,00.6,0659.1,31.0
2021-05-31T01:43:00Z,00000200,01000000,0000.75,0000.28,0000.00,0000.02,0000.21,-000.09,-000.08,-000.05,0000.07,17.6,24.2,01.0,00.7,0659.1,31.0
2021-05-31T01:44:00Z,00000200,01000000,0000.09,0000.19,-000.03,-000.48,-000.19,-000.01,0000.11,0000.00,-000.11,17.5,24.2,01.0,00.6,0659.1,31.0
2021-05-31T01:45:00Z,00000200,01000000,-000.61,0000.02,-000.24,0000.02,0000.23,-000.12,-000.45,-000.64,0000.15,17.5,24.2,00.8,00.5,0659.1,31.0
2021-05-31T01:46:00Z,00000200,01000000,-000.51,0000.17,0000.11,-000.84,0000.08,-000.08,-000.09,0000.34,-000.38,17.5,24.2,00.7,00.4,0659.1,31.0
2021-05-31T01:47:00Z,00000200,01000000,0000.39,0000.36,0000.11,-000.19,0000.14,-000.33,0000.26,-000.46,0000.03,17.5,24.2,00.5,00.4,0659.1,31.0
2021-05-31T01:48:00Z,00000200,01000000,0000.53,0000.05,0000.26,-000.13,-000.23,0000.02,0000.08,0000.28,-000.08,17.5,24.2,00.6,00.4,0659.1,31.0
2021-05-31T01:49:00Z,00000200,01000000,0000.51,0000.20,0000.08,-000.05,-000.04,-000.34,-000.16,-000.15,0000.04,17.5,24.2,00.5,00.3,0659.1,31.0
2021-05-31T01:50:00Z,00000200,01000000,0000.34,0000.29,0000.09,-000.34,-000.12,-000.04,-000.21,-000.04,-000.07,17.5,24.2,00.4,00.3,0659.2,31.0
2021-05-31T01:51:00Z,00000200,01000000,0000.50,0000.13,0000.06,0000.15,0000.23,-000.35,-000.06,-000.10,0000.13,17.5,24.2,00.4,00.2,0659.1,31.0
2021-05-31T01:52:00Z,00000200,01000000,0000.19,0000.16,0000.01,-000.24,0000.25,-000.15,-000.43,-000.33,-000.47,17.5,24.2,00.3,00.2,0659.2,31.0
2021-05-31T01:53:00Z,00000200,01000000,0000.07,0000.09,0000.24,0000.19,0000.24,-000.07,0000.01,0000.16,0000.05,17.5,24.2,00.3,00.2,0659.2,31.0
2021-05-31T01:54:00Z,00000200,01000000,0000.06,0000.08,-000.28,0000.64,-000.07,-000.08,0000.30,0000.05,-000.12,17.5,24.2,00.2,00.1,0659.2,31.0
2021-05-31T01:55:00Z,00000200,01000000,0000.00,0000.26,-000.12,0000.33,-000.07,-000.25,-000.09,-000.05,0000.10,17.5,24.2,00.1,00.1,0659.2,31.0
2021-05-31T01:56:00Z,00000200,01000000,-000.08,0000.26,0000.27,-000.23,0000.17,-000.08,0000.20,0000.13,0000.09,17.5,24.2,00.1,00.1,0659.1,31.0
2021-05-31T01:57:00Z,00000200,41000000,,,,,,,0000.59,0001.08,0001.00,17.4,24.2,,00.0,0659.1,31.0
2021-05-31T01:58:00Z,00000200,61000000,,,,,,,-000.52,-000.85,-000.66,17.1,24.3,00.3,00.2,0658.2,31.0
2021-05-31T01:59:00Z,00000200,21000000,,,,,,,0000.11,-000.24,-000.02,17.1,24.4,00.1,00.1,0658.2,31.0
